STARLINK-1232 (45213 NORAD) Tracking and Keplerian Element Data

This shows tracking and keplerian element data for the satellite.

Feedback or suggestion? Click here.




ElementValue
Catalog45213
NameSTARLINK-1232
Epoch Orbit2212
Epoch Day190.25001157
Epoch Year2020
RAAN321.1798
Inclination53.002
Eccentricity0.0001313
Argument of Perigee107.6625
Mean Anonmoly180.5865
Mean Motion15.05558186
Decay Rate0.00042311
L11 45213U 20012AM 20190.25001157 .00042311 00000-0 29074-2 0 9998
L22 45213 53.0020 321.1798 0001313 107.6625 180.5865 15.05558186 22127

Live tracking and technical data element details for STARLINK-1232 (NORAD 45213). STARLINK-1232 can be tracked NOW for your location showing map with azimuth and elevation plus other details from your city location.

Track the satellite on the map from your city or location and see movement details for azimuth, elevation, latitude, longitude, range, height, and movement on the map or in text.







IsCatalogInMostPopularTable: catalog: 45213, numindb: 24
Update: records affected: 1



GetName: 45213 STARLINK-1232

Hit Count: updated at: Thu, 09 Jul 2020 01:17:49 GMT